Location: Dal�� Lhota
(48.7500°N, 14.0167°E)
Time: 00:00:56
(UTC+00:00)

Vanguard 3 - Pass Details

Date: 03 August 2021
Orbit: 510 x 3260 km, 33.3° (Epoch: 19 September)

Event Time Altitude Azimuth Distance (km) Brightness Sun altitude
Rises 22:12:05 0° 275° (W) 6,928 12.1 -22.7°
Reaches altitude 10° 22:17:44 10° 264° (W) 6,102 11.7 -23.0°
Maximum altitude 22:31:53 26° 219° (SW) 4,893 10.7 -23.5°
Enters shadow 22:36:37 23° 199° (SSW) 4,920 10.6 -23.6°
Drops below altitude 10° 22:44:54 10° 171° (S) 5,552 - -23.8°
Sets 22:49:48 0° 160° (SSE) 6,208 - -23.9°
